Location: Dalton
(34.7700°N, 84.9700°W)
Time: 07:15:10
(UTC-04:00)

OTV 5 (USA 277) - Pass Details

Date: 09 October 2017
Orbit: 404 x 417 km, 43.0° (Epoch: 07 September)

Event Time Altitude Azimuth Distance (km) Brightness Sun altitude
Rises 20:31:06 0° 246° (WSW) 2,344 ? -16.9°
Reaches altitude 10° 20:33:13 10° 248° (WSW) 1,484 ? -17.4°
Maximum altitude 20:36:33 72° 332° (NNW) 440 ? -18.1°
Enters shadow 20:37:20 48° 41° (NE) 548 ? -18.2°
